Weather in Anjou

Canada     45°36′15″N   73°31′51″W
temp.,
°C
wind,
m/s
gust,
m/s
humid.,
%
clouds,
%
prec.,
mm/h
press.,
hPa
HPBL,
m
22 january, sat
sat2201:00−31se1110050 0.0 10379
04:00−32ene1110040 0.0 10359
07:00−33e1110038 0.0 10349
10:00−23ene119513 0.0 1032108
13:00−15se2387100 0.0 1026324
16:00−14ene2393100 0.0 1022160
19:00−18ne2297100 0.0 101834
22:00−17ene1198100 0.0 101420
23 january, sun
sun2301:00−10s31088100 0.0 1010280
04:00−8ssw41289100 0.1 1007713
07:00−7wsw6128395 0.5 10071077
10:00−10w6128358 0.0 10091018
13:00−12w588196 0.0 1010985
16:00−14wsw498237 0.0 1011435
19:00−19w26935 0.0 101374
22:00−26wsw11995 0.0 10159
24 january, mon
mon2401:00−29sw1110011 0.0 10159
04:00−30sw111009 0.0 10169
07:00−29ssw2110070 0.0 101719
10:00−19s2390100 0.0 1017161
13:00−12s2482100 0.0 1015550
16:00−11sse3795100 0.3 1014401
19:00−10sse3992100 0.5 1014336
22:00−10sse3890100 0.1 1014218
25 january, tue
tue2501:00−9sse4109197 0.1 1013350
04:00−8sse4108895 0.1 1012299
07:00−9se3891100 0.1 1012264
10:00−5sse41095100 0.8 1012443
13:00−1sw4886100 1.0 10111058
16:00−5w2691100 0.0 1014314
19:00−8w2893100 0.0 1015178
22:00−15w1198100 0.0 101713
26 january, wed
wed2601:00−20nnw1110036 0.0 101810
04:00−22nnw119897 0.0 101928
07:00−24nw1197100 0.0 102111
10:00−18nnw34847 0.0 1021276
13:00−14nnw247899 0.0 1020705
16:00−14w129099 0.0 102183
19:00−17nw2693100 0.0 1023144
22:00−17nnw3884100 0.0 1024320